Location: Azul
(36.7830°S, 59.8500°W)
Time: 16:56:55
(UTC-03:00)

FO-29 - Pass Details

Date: 30 October 2021
Orbit: 799 x 1322 km, 98.5° (Epoch: 05 December)

Event Time Altitude Azimuth Distance (km) Brightness Sun altitude
Rises 22:07:10 0° 167° (SSE) 4,193 13.2 -27.2°
Reaches altitude 10° 22:09:47 10° 166° (SSE) 3,270 12.6 -27.6°
Maximum altitude 22:17:31 84° 77° (ENE) 1,332 10.0 -28.6°
Enters shadow 22:19:52 51° 354° (N) 1,622 10.3 -28.9°
